WZZ4D1 ESSA-EFHK

Flight info

Callsign WZZ4D1
Flight time 0h 39m
Altitude 31000
Route MASEV Z183 LEGPO DCT ELTOK
Aircraft A32N/M-V/N

Departure

Time 2026-04-23 13:24
Airport Stockholm-Arlanda Airport (ESSA)

Arrival

Time 2026-04-23 14:03
Airport Helsinki Vantaa Airport (EFHK)
Time Latitude Longitude Altitude Speed Heading
2026-04-23 13:14 59.65509 17.94023 125 ft 0 kts 75°
2026-04-23 13:19 59.65509 17.94022 125 ft 0 kts 75°
2026-04-23 13:19 59.65508 17.94018 125 ft 0 kts 52°
2026-04-23 13:20 59.65503 17.94007 124 ft 0 kts 29°
2026-04-23 13:20 59.65501 17.94004 124 ft 0 kts 340°
2026-04-23 13:20 59.65511 17.93993 124 ft 3 kts 319°
2026-04-23 13:20 59.65527 17.93934 123 ft 6 kts 288°
2026-04-23 13:21 59.65558 17.93869 123 ft 7 kts 342°
2026-04-23 13:21 59.65620 17.93836 121 ft 10 kts 349°
2026-04-23 13:21 59.65673 17.93757 121 ft 10 kts 272°
2026-04-23 13:21 59.65658 17.93608 119 ft 12 kts 256°
2026-04-23 13:22 59.65685 17.93497 118 ft 10 kts 44°
2026-04-23 13:22 59.65690 17.93508 118 ft 0 kts 51°
2026-04-23 13:22 59.65691 17.93509 118 ft 0 kts 39°
2026-04-23 13:22 59.65741 17.93541 120 ft 13 kts 27°
2026-04-23 13:23 59.65812 17.93659 121 ft 13 kts 39°
2026-04-23 13:23 59.65873 17.93841 121 ft 22 kts 73°
2026-04-23 13:23 59.65948 17.94424 130 ft 78 kts 74°
2026-04-23 13:23 59.66138 17.95910 133 ft 144 kts 75°
2026-04-23 13:24 59.66377 17.98039 516 ft 165 kts 74°
2026-04-23 13:24 59.66592 18.00235 1217 ft 166 kts 73°
2026-04-23 13:24 59.66815 18.02463 1988 ft 166 kts 71°
2026-04-23 13:24 59.67092 18.04705 2551 ft 174 kts 68°
2026-04-23 13:25 59.67403 18.07050 3155 ft 182 kts 68°
2026-04-23 13:25 59.67696 18.09504 3729 ft 192 kts 69°
2026-04-23 13:25 59.68008 18.12197 4219 ft 209 kts 70°
2026-04-23 13:25 59.68356 18.15102 4652 ft 231 kts 70°
2026-04-23 13:26 59.68730 18.18326 5220 ft 250 kts 71°
2026-04-23 13:26 59.69119 18.21799 5798 ft 268 kts 71°
2026-04-23 13:26 59.69516 18.25455 6578 ft 278 kts 71°
2026-04-23 13:26 59.69913 18.29167 7532 ft 281 kts 71°
2026-04-23 13:27 59.70314 18.32918 8473 ft 284 kts 70°
2026-04-23 13:27 59.70728 18.36758 9413 ft 287 kts 70°
2026-04-23 13:27 59.71138 18.40581 10258 ft 291 kts 70°
2026-04-23 13:27 59.71564 18.44520 10940 ft 303 kts 70°
2026-04-23 13:28 59.72020 18.48720 11415 ft 321 kts 70°
2026-04-23 13:28 59.72499 18.53166 11860 ft 339 kts 70°
2026-04-23 13:28 59.72996 18.57830 12250 ft 358 kts 71°
2026-04-23 13:28 59.73515 18.62729 12592 ft 375 kts 71°
2026-04-23 13:29 59.74063 18.67942 12889 ft 393 kts 72°
2026-04-23 13:29 59.74731 18.73182 13294 ft 400 kts 66°
2026-04-23 13:29 59.75769 18.78270 13934 ft 399 kts 57°
2026-04-23 13:29 59.77148 18.83005 14668 ft 395 kts 50°
2026-04-23 13:30 59.78678 18.87485 15312 ft 397 kts 49°
2026-04-23 13:30 59.80247 18.91967 15928 ft 401 kts 49°
2026-04-23 13:30 59.81856 18.96554 16512 ft 405 kts 49°
2026-04-23 13:30 59.83465 19.01163 17109 ft 408 kts 49°
2026-04-23 13:31 59.85065 19.05771 17654 ft 412 kts 49°
2026-04-23 13:31 59.86698 19.10495 18206 ft 415 kts 49°
2026-04-23 13:31 59.88324 19.15213 18730 ft 418 kts 49°
2026-04-23 13:31 59.89957 19.19968 19283 ft 420 kts 49°
2026-04-23 13:32 59.91602 19.24766 19834 ft 422 kts 49°
2026-04-23 13:32 59.93259 19.29608 20335 ft 424 kts 49°
2026-04-23 13:32 59.94896 19.34472 20807 ft 429 kts 50°
2026-04-23 13:32 59.96341 19.39747 21292 ft 438 kts 57°
2026-04-23 13:33 59.97499 19.45360 21745 ft 447 kts 63°
2026-04-23 13:33 59.98382 19.51371 22180 ft 454 kts 67°
2026-04-23 13:33 59.99148 19.57511 22626 ft 457 kts 68°
2026-04-23 13:33 59.99882 19.63641 23044 ft 459 kts 68°
2026-04-23 13:34 60.00624 19.69882 23439 ft 461 kts 69°
2026-04-23 13:34 60.01357 19.76046 23793 ft 463 kts 69°
2026-04-23 13:34 60.02107 19.82347 24129 ft 466 kts 69°
2026-04-23 13:34 60.02846 19.88576 24607 ft 464 kts 68°
2026-04-23 13:35 60.03587 19.94867 25149 ft 462 kts 68°
2026-04-23 13:35 60.04319 20.01077 25646 ft 460 kts 68°
2026-04-23 13:35 60.05048 20.07276 26080 ft 460 kts 68°
2026-04-23 13:35 60.05769 20.13418 26555 ft 458 kts 68°
2026-04-23 13:36 60.06489 20.19596 27056 ft 456 kts 68°
2026-04-23 13:36 60.07209 20.25815 27528 ft 455 kts 67°
2026-04-23 13:36 60.07915 20.31906 27960 ft 454 kts 67°
2026-04-23 13:36 60.08622 20.38054 28422 ft 453 kts 67°
2026-04-23 13:37 60.09327 20.44210 28857 ft 452 kts 67°
2026-04-23 13:37 60.10017 20.50254 29296 ft 451 kts 67°
2026-04-23 13:37 60.10709 20.56353 29766 ft 450 kts 66°
2026-04-23 13:37 60.11406 20.62499 30094 ft 452 kts 66°
2026-04-23 13:38 60.12099 20.68633 30364 ft 455 kts 67°
2026-04-23 13:38 60.12791 20.74783 30608 ft 457 kts 67°
2026-04-23 13:38 60.13490 20.81034 30910 ft 458 kts 67°
2026-04-23 13:39 60.14865 20.93469 31000 ft 456 kts 67°
2026-04-23 13:39 60.16224 21.05844 31001 ft 457 kts 67°
2026-04-23 13:40 60.17575 21.18266 31002 ft 456 kts 67°
2026-04-23 13:40 60.18910 21.30653 30993 ft 455 kts 67°
2026-04-23 13:41 60.20231 21.43048 30991 ft 455 kts 67°
2026-04-23 13:41 60.21545 21.55483 30989 ft 455 kts 67°
2026-04-23 13:42 60.22844 21.67876 30980 ft 455 kts 68°
2026-04-23 13:42 60.24127 21.80223 30974 ft 454 kts 68°
2026-04-23 13:43 60.25410 21.92683 30976 ft 454 kts 68°
2026-04-23 13:43 60.26666 22.05037 30697 ft 453 kts 68°
2026-04-23 13:43 60.27294 22.11260 30299 ft 452 kts 68°
2026-04-23 13:44 60.27907 22.17371 29645 ft 447 kts 68°
2026-04-23 13:44 60.28513 22.23436 28888 ft 445 kts 68°
2026-04-23 13:44 60.29123 22.29523 28036 ft 445 kts 68°
2026-04-23 13:44 60.29732 22.35620 27125 ft 448 kts 68°
2026-04-23 13:45 60.30339 22.41748 26122 ft 451 kts 69°
2026-04-23 13:45 60.30944 22.47887 25093 ft 454 kts 69°
2026-04-23 13:45 60.31555 22.54154 24058 ft 457 kts 69°
2026-04-23 13:45 60.32160 22.60398 23100 ft 458 kts 70°
2026-04-23 13:46 60.32760 22.66654 22481 ft 453 kts 71°
2026-04-23 13:46 60.33347 22.72821 21828 ft 449 kts 71°
2026-04-23 13:46 60.33925 22.78916 21209 ft 443 kts 71°
2026-04-23 13:46 60.34497 22.84993 20623 ft 438 kts 71°
2026-04-23 13:47 60.35062 22.90947 20036 ft 439 kts 71°
2026-04-23 13:47 60.35635 22.97037 19436 ft 437 kts 71°
2026-04-23 13:47 60.36188 23.02942 18870 ft 434 kts 71°
2026-04-23 13:47 60.36739 23.08878 18287 ft 430 kts 71°
2026-04-23 13:48 60.37280 23.14745 17693 ft 426 kts 71°
2026-04-23 13:48 60.37818 23.20601 17074 ft 421 kts 71°
2026-04-23 13:48 60.38343 23.26335 16413 ft 417 kts 71°
2026-04-23 13:48 60.38860 23.32017 15759 ft 413 kts 71°
2026-04-23 13:49 60.39378 23.37715 15089 ft 409 kts 71°
2026-04-23 13:49 60.39880 23.43269 14439 ft 404 kts 71°
2026-04-23 13:49 60.40380 23.48835 13806 ft 399 kts 71°
2026-04-23 13:49 60.40866 23.54259 13163 ft 395 kts 72°
2026-04-23 13:50 60.41352 23.59702 12578 ft 389 kts 72°
2026-04-23 13:50 60.41817 23.64959 12198 ft 378 kts 72°
2026-04-23 13:50 60.42265 23.70097 11902 ft 364 kts 73°
2026-04-23 13:50 60.42694 23.75027 11570 ft 354 kts 73°
2026-04-23 13:51 60.43115 23.79859 11242 ft 344 kts 73°
2026-04-23 13:51 60.43517 23.84506 11034 ft 331 kts 73°
2026-04-23 13:51 60.43869 23.89027 10839 ft 321 kts 75°
2026-04-23 13:51 60.44134 23.93452 10672 ft 309 kts 76°
2026-04-23 13:52 60.44379 23.97677 10458 ft 299 kts 76°
2026-04-23 13:52 60.44602 24.01784 10342 ft 288 kts 78°
2026-04-23 13:52 60.44685 24.05716 10191 ft 281 kts 82°
2026-04-23 13:52 60.44620 24.09694 9846 ft 282 kts 85°
2026-04-23 13:53 60.44513 24.13652 9503 ft 281 kts 86°
2026-04-23 13:53 60.44399 24.17549 9163 ft 280 kts 86°
2026-04-23 13:53 60.44282 24.21474 8840 ft 277 kts 86°
2026-04-23 13:53 60.44168 24.25315 8541 ft 275 kts 87°
2026-04-23 13:54 60.44053 24.29152 8223 ft 273 kts 87°
2026-04-23 13:54 60.43937 24.32971 7891 ft 271 kts 87°
2026-04-23 13:54 60.43822 24.36774 7577 ft 270 kts 88°
2026-04-23 13:54 60.43706 24.40552 7251 ft 269 kts 88°
2026-04-23 13:55 60.43591 24.44301 6927 ft 267 kts 88°
2026-04-23 13:55 60.43448 24.48008 6607 ft 267 kts 95°
2026-04-23 13:55 60.42736 24.51462 6269 ft 274 kts 124°
2026-04-23 13:55 60.41348 24.54138 5966 ft 275 kts 138°
2026-04-23 13:56 60.39864 24.56519 5655 ft 274 kts 139°
2026-04-23 13:56 60.38375 24.58904 5343 ft 273 kts 138°
2026-04-23 13:56 60.36912 24.61290 5025 ft 272 kts 137°
2026-04-23 13:56 60.35447 24.63712 4708 ft 270 kts 137°
2026-04-23 13:57 60.33904 24.65795 4367 ft 272 kts 160°
2026-04-23 13:57 60.32049 24.66061 4039 ft 269 kts 196°
2026-04-23 13:57 60.30433 24.64291 3711 ft 261 kts 228°
2026-04-23 13:57 60.29263 24.61644 3578 ft 249 kts 234°
2026-04-23 13:58 60.28146 24.59056 3483 ft 239 kts 228°
2026-04-23 13:58 60.26735 24.57439 3354 ft 237 kts 189°
2026-04-23 13:58 60.25145 24.57924 3127 ft 233 kts 147°
2026-04-23 13:58 60.23972 24.60014 2897 ft 227 kts 130°
2026-04-23 13:59 60.22886 24.62344 2647 ft 227 kts 131°
2026-04-23 13:59 60.21823 24.64652 2379 ft 223 kts 118°
2026-04-23 13:59 60.21404 24.67486 2291 ft 204 kts 81°
2026-04-23 13:59 60.21847 24.69975 2285 ft 184 kts 50°
2026-04-23 14:00 60.22402 24.71268 2295 ft 182 kts 41°
2026-04-23 14:00 60.23623 24.73602 2292 ft 182 kts 41°
2026-04-23 14:00 60.24519 24.75440 2144 ft 183 kts 43°
2026-04-23 14:00 60.25366 24.77292 1982 ft 175 kts 44°
2026-04-23 14:01 60.26150 24.79039 1703 ft 163 kts 44°
2026-04-23 14:01 60.26883 24.80666 1478 ft 150 kts 43°
2026-04-23 14:01 60.27559 24.82166 1261 ft 137 kts 43°
2026-04-23 14:01 60.28170 24.83516 1049 ft 124 kts 42°
2026-04-23 14:02 60.28746 24.84791 878 ft 123 kts 42°
2026-04-23 14:02 60.29328 24.86059 717 ft 123 kts 41°
2026-04-23 14:02 60.29905 24.87336 567 ft 123 kts 42°
2026-04-23 14:02 60.30479 24.88590 447 ft 123 kts 41°
2026-04-23 14:03 60.31063 24.89876 284 ft 124 kts 42°
2026-04-23 14:03 60.31638 24.91150 173 ft 120 kts 42°
2026-04-23 14:03 60.32130 24.92212 180 ft 82 kts 52°
2026-04-23 14:03 60.32387 24.92815 188 ft 28 kts 59°
2026-04-23 14:04 60.32452 24.93165 192 ft 24 kts 76°
2026-04-23 14:04 60.32487 24.93487 193 ft 23 kts 75°
2026-04-23 14:04 60.32521 24.93801 194 ft 22 kts 78°
2026-04-23 14:04 60.32599 24.94051 195 ft 21 kts 46°
2026-04-23 14:05 60.32702 24.94270 195 ft 20 kts 46°
2026-04-23 14:05 60.32798 24.94482 196 ft 20 kts 47°
2026-04-23 14:05 60.32890 24.94686 198 ft 19 kts 47°
2026-04-23 14:05 60.32937 24.94849 201 ft 10 kts 135°
2026-04-23 14:06 60.32841 24.94944 199 ft 23 kts 162°
2026-04-23 14:06 60.32648 24.95065 194 ft 31 kts 160°
2026-04-23 14:06 60.32458 24.95193 194 ft 25 kts 163°
2026-04-23 14:06 60.32304 24.95333 193 ft 23 kts 139°
2026-04-23 14:07 60.32182 24.95556 191 ft 23 kts 138°
2026-04-23 14:07 60.31949 24.95991 181 ft 21 kts 136°
2026-04-23 14:07 60.31863 24.96132 181 ft 14 kts 150°
2026-04-23 14:08 60.31797 24.96234 182 ft 8 kts 137°
2026-04-23 14:08 60.31779 24.96267 183 ft 0 kts 138°